{"data":{"norad_id":66214,"intl_designator":"2025-244J","name":"STARLINK-35714","alt_names":[],"object_type":"PAYLOAD","status":"ACTIVE","operator":null,"country":"US","launch_date":"2025-10-28","launch_site_code":"AFWTR","launch_vehicle":null,"mission":null,"orbit_class":"UNKNOWN","rcs_meters":null,"size_class":null,"mass_kg":null,"dimensions":null,"purposes":["comms"],"wikipedia_slug":null,"has_3d_model":false,"image_url":null,"decayed_at":null,"tle_current":{"epoch":"2026-09-19T16:23:12.100416Z","epoch_age_seconds":82365,"freshness":"FRESH","line1":"1 66214U 25244J   26262.68277894  .00017454  00000+0  52625-3 0  9998","line2":"2 66214  53.1602  47.2099 0001222  98.8723 261.2418 15.34414858 51387","mean_motion":15.34414858,"eccentricity":0.0001222,"inclination_deg":53.1602,"raan_deg":47.2099,"arg_perigee_deg":98.8723,"mean_anomaly_deg":261.2418,"bstar":0.00052625,"rev_number":5138,"period_min":93.846849337534,"perigee_km":461.82313417536,"apogee_km":463.49502473718,"semimajor_km":6840.7960794563,"source":"CELESTRAK","updated_at":"2026-09-20T09:00:43.183579Z"}}}